Вернуться в каталог

PEGASUS DEB

АктивенPO
NORAD 39921·DEBRIS·🇺🇸 United States

Запущен May 19, 1994 с Vandenberg Space Force Base

Loading…

Ближайшие Пролёты (ближайшие 24 часа)

TLE

УстаревающийSource: Space-Track

Эпоха: Sep 5, 2026, 10:32 UTC

1 39921U 94029AFU 26248.43954166  .00001388  00000-0  36385-3 0  9996
2 39921  81.5359 141.3258 0370608 103.9409 260.3269 14.14716054 56496

Отслеживайте PEGASUS DEB в реальном времени с AllMySat

Download on the App Store